Location: North Bay
(46.3091°N, 79.4608°W)
Time: 06:47:51
(UTC-04:00)

ISS - Visible Passes

Search period start: 21 October 2019 00:00
Search period end: 31 October 2019 00:00
Orbit: 411 x 421 km, 51.6° (Epoch: 21 October)

Date Brightness Start Highest point End Pass type
(mag) Time Alt. Az. Time Alt. Az. Time Alt. Az.
22 Oct -0.5 07:02:53 10° SSE 07:04:09 12° SE 07:05:25 10° ESE visible
24 Oct -1.7 07:00:26 10° SSW 07:03:21 28° SE 07:06:17 10° E visible
25 Oct -1.1 06:12:35 10° S 06:14:55 18° SE 06:17:15 10° E visible
26 Oct -0.7 05:25:40 10° SSE 05:26:32 11° SE 05:27:24 10° ESE visible
26 Oct -3.4 06:59:21 10° SW 07:02:42 65° SSE 07:06:03 10° ENE visible
27 Oct -2.6 06:12:29 23° SSW 06:14:08 40° SE 06:17:20 10° ENE visible
28 Oct -1.6 05:26:18 24° ESE 05:26:18 24° ESE 05:28:28 10° E visible
28 Oct -3.7 06:59:13 13° WSW 07:02:10 62° NNW 07:05:31 10° ENE visible
29 Oct -3.9 06:12:52 57° WSW 06:13:30 89° NNW 06:16:52 10° ENE visible
30 Oct -1.7 05:26:26 28° ENE 05:26:26 28° ENE 05:28:11 10° ENE visible
30 Oct -3.0 06:59:20 16° WNW 07:01:44 39° NNW 07:04:55 10° ENE visible
